Location: Newark
(50.0306°N, 2.3272°E)
Time: 15:28:17
(UTC+00:00)

Transit 2A Rocket - Pass Details

Date: 09 December 2019
Orbit: 593 x 910 km, 66.7° (Epoch: 28 January)

Event Time Altitude Azimuth Distance (km) Brightness Sun altitude
Rises 22:09:45 0° 324° (NW) 2,841 - -57.3°
Reaches altitude 10° 22:13:19 10° 355° (N) 1,949 - -57.6°
Maximum altitude 22:15:10 12° 21° (NNE) 1,808 - -57.8°
Drops below altitude 10° 22:17:02 10° 46° (NE) 1,979 - -58.0°
Sets 22:20:43 0° 77° (ENE) 2,934 - -58.4°
